COSMOS 2491 DEB, 44998

Orbit data source: Space-Track

COSMOS 2491 DEB, 44998 is space debris in LEO originally from a launch on Wed, 25 Dec 2013 UTC launched from the Plesetsk Missile And Space Complex (PKMTR). Debris objects in space refer to the collection of defunct objects orbiting the Earth. Examples of debris include non-operational satellites, rocket bodies, and fragments generated from explosions, collisions, or faulty payload assembly.

Loading next visibility...
Identifier
44998, 2013-076S
Orbit
LEO
Country
Flag of CISCIS
Related business
Manufacturer
TsNIIKhM
Mission
Spacecraft
Bus & Motor
Unknown
Mass
Unknown
Launch date (UTC)
2013-12-25 (12 years ago)
Launch vehicle
Unknown
Launch site
Plesetsk Missile And Space Complex (PKMTR)
Object type
Payload
Rocket body
Debris
Shape & HBR
Unknown shape, 0.1 m
Radar Cross Section
Small (<0.1 m²)

Expand to show TLE details & history
Last TLE update: 6 hours ago

TLE from 6 hours ago
0 COSMOS 2491 DEB
1 44998U 13076S   25312.15145795  .00003671  00000-0  18956-1 0  9998
2 44998  82.4731 255.1452 0099516 311.1416  48.1120 12.66571808269290
Epoch: 2025-11-08T03:38Z
TLE epoch observation values (Epoch: 2025-11-08T03:38:05.966Z)
Latitude
-0.00008°
Longitude
153.03515°
Altitude
1,347.438 km
Speed
7.208 km/s
True Right ascension
17h 00m 34s
True Declination
0° 00' 00"
Sunlit
Object was in daylight at epoch
Visualization orbit readout
Latitude
Unknown
Longitude
Unknown
Altitude
Unknown
Speed
Unknown
Apparent Right ascension
Unknown
Apparent Declination
Unknown
Sunlit
N/A
Visualization observer readout
Local Sidereal Time
05:48:23
Azimuth
Unknown
Elevation
Unknown
Doppler factor
Unknown
Orbital elements
Apogee altitude
1,470.592 km
Perigee altitude
1,315.917 km
Semi-major axis
7,771.392 km
Eccentricity
0.00995
Inclination
82.4731°
RAAN
255.1452°
Arg. of periapsis
311.1416°
True anomaly
48.96803°
Mean anomaly
48.112°
Eccentric anomaly
48.5393°
Mean motion
3.16807 °/min
Orbital period
113.63 mins
BSTAR
0.018956
Loading maneuver chart data...
Computing Atmospheric mass density...
Loading historical data...
Loading historical data...
Loading historical data...
Loading historical data...
Loading historical data...
Loading historical data...
Loading historical data...

Documentation

Showing up to 5 results
|